RH
33 32 36 32 35 35 30 29 23 25 28 28 28 25 21 16 15 17 10 6 6 5 6 4 4 5 7 8 10 13 15 18 20 16 12 10 9 9 10 10 11 12 12
30 32 35 32 36 36 34 34 28 25 25 28 28 27 24 18 14 16 13 9 7 8 7 6 7 6 5 5 6 9 11 12 11 10 8 7 9 10 11 12 12 11 10
31 31 35 34 36 36 35 31 33 31 26 28 28 27 24 20 15 15 17 13 10 9 10 8 9 9 9 8 6 6 6 7 7 7 9 10 11 11 11 11 14 17 18
34 31 34 36 37 37 36 37 31 31 28 29 29 26 24 22 18 16 18 19 16 12 9 9 9 10 10 10 10 10 10 11 11 11 11 11 12 15 17 16 14 14 15
36 32 33 36 38 38 37 36 36 31 28 28 31 33 29 23 21 18 16 18 21 22 22 20 20 20 18 17 16 15 15 15 17 18 18 16 16 16 17 16 16 16 16
35 35 32 35 37 38 38 37 38 36 31 36 34 31 33 34 30 22 20 18 16 15 15 15 16 17 17 17 18 18 18 19 18 18 18 18 19 19 19 19 19 19 21
39 39 32 34 36 37 38 38 39 40 37 30 38 39 40 39 35 35 34 27 24 22 22 22 22 22 22 23 23 23 23 22 22 20 21 20 19 19 19 19 19 19 19
41 36 32 34 33 36 38 38 39 39 40 39 34 38 43 41 44 40 36 36 37 37 38 38 38 37 37 36 35 34 32 31 28 26 24 22 21 21 21 21 21 23 22
45 40 34 33 34 33 37 39 39 40 41 42 41 39 36 44 44 44 46 45 44 43 43 42 39 39 39 39 39 39 40 40 40 39 36 32 29 26 24 22 22 22 22
42 46 40 36 35 34 34 38 39 40 41 42 42 41 41 41 40 45 45 47 48 48 48 48 47 45 44 44 43 40 39 38 38 37 40 40 40 35 28 25 23 21 19
29 34 38 43 38 36 34 36 38 40 41 42 42 42 42 42 42 41 40 44 47 49 50 49 50 50 50 50 50 50 49 48 46 43 41 40 38 41 39 31 26 24 21
26 31 30 38 40 42 39 36 38 39 40 42 43 43 43 44 44 43 43 43 45 47 49 50 50 50 50 52 52 53 53 53 52 47 48 42 43 41 43 39 32 28 25
31 28 32 37 39 41 44 43 38 40 42 41 42 44 45 45 45 45 46 45 45 45 46 49 51 52 51 50 52 54 55 54 54 52 52 45 43 44 44 43 38 32 28
29 27 30 34 37 36 37 42 46 42 41 44 46 45 46 46 46 46 46 47 48 47 46 47 48 49 52 52 51 52 55 56 55 54 54 48 43 44 42 43 42 35 31
36 34 31 30 39 46 44 39 42 48 47 44 43 45 47 47 47 48 47 47 47 47 48 47 48 47 49 51 53 53 53 56 57 55 55 50 41 43 42 41 42 38 33
38 37 35 33 31 35 46 46 43 44 45 51 53 52 52 51 52 52 50 49 49 48 47 47 48 48 48 49 52 53 54 56 58 56 54 52 41 44 45 43 42 41 35
32 35 35 36 37 37 38 37 40 48 48 47 51 52 55 58 57 55 55 54 51 51 50 49 49 49 50 51 51 52 53 57 58 58 56 50 43 44 46 46 44 43 38
25 32 27 20 30 35 37 37 35 37 42 41 40 37 36 38 46 55 57 56 55 56 58 54 53 52 52 52 53 51 52 57 58 58 58 50 42 44 46 49 46 45 42
16 18 22 33 27 24 33 34 38 38 40 40 38 36 32 30 33 44 54 60 62 62 60 62 61 60 59 57 55 54 52 54 60 59 59 52 42 41 46 48 48 47 46
14 13 16 29 39 40 35 34 36 38 37 40 45 42 43 42 39 39 42 53 59 60 60 61 62 62 65 61 55 53 53 55 60 60 61 54 47 43 41 48 52 49 49
13 10 8 9 12 22 39 50 46 34 35 41 42 50 50 48 42 41 43 44 56 58 62 68 68 62 60 62 60 56 57 60 63 62 62 58 50 49 47 44 52 52 53
11 11 9 9 10 13 17 26 42 49 35 34 35 38 46 48 46 42 43 44 46 54 61 64 65 70 70 70 65 62 64 64 64 66 66 62 56 53 53 51 50 54 55
10 11 12 12 12 13 14 14 16 18 25 20 15 17 21 31 44 45 42 44 48 54 61 64 64 62 68 70 68 69 68 65 70 72 71 68 63 60 58 57 58 58 56
13 14 15 16 17 18 18 17 17 18 21 25 24 26 30 31 32 34 49 55 56 52 60 66 72 74 76 69 69 65 68 75 75 71 75 76 71 70 68 67 72 73 82
17 17 19 21 23 22 20 17 16 17 19 23 30 32 28 26 24 31 32 38 47 62 64 69 80 76 71 74 78 75 70 73 75 77 81 81 90 92 85 88 88 73 95
23 22 22 21 20 18 16 15 15 16 15 15 16 18 19 19 20 22 30 38 43 45 50 58 64 71 74 74 72 73 75 76 79 78 83 87 92 99 100 100 100 97 99
Wind_Speed
8 8 7 8 10 11 11 10 10 9 8 8 8 8 8 8 8 7 8 8 8 7 7 8 7 7 7 7 7 7 6 4 4 5 4 5 5 5 5 5 5 6 7
11 9 7 8 9 11 12 11 11 10 9 8 8 8 8 8 7 7 8 8 9 8 7 9 9 8 6 4 5 4 3 3 3 3 4 3 3 4 5 6 7 7 7
13 11 9 8 8 9 11 12 11 12 9 8 9 8 8 9 8 7 7 7 8 9 11 9 9 8 8 7 5 4 3 2 2 2 1 3 3 5 6 7 7 7 7
14 14 11 9 7 6 7 10 12 12 10 10 10 10 9 9 9 8 8 8 8 9 10 8 8 7 7 7 6 5 4 2 1 2 3 2 5 5 5 5 5 6 6
15 16 14 11 8 5 4 6 9 12 11 10 10 11 12 11 10 10 9 9 8 8 8 8 7 8 8 7 6 4 3 2 2 3 4 4 4 5 5 6 6 5 5
16 17 17 14 11 8 5 4 6 9 11 9 11 10 10 12 12 11 10 10 10 10 9 9 9 9 9 8 7 6 6 5 5 4 5 5 6 6 6 6 6 7 6
16 19 19 17 14 12 7 5 3 5 8 8 7 9 11 12 11 11 11 11 11 10 10 10 9 9 9 8 8 7 7 7 7 6 6 6 6 7 7 7 8 8 8
17 17 19 18 16 15 12 8 5 2 3 5 6 5 6 7 9 10 9 9 9 10 10 10 10 10 10 10 9 9 8 8 8 8 8 8 9 8 8 8 8 8 9
11 14 17 18 17 17 16 14 10 7 4 2 3 5 4 4 5 6 6 6 7 7 7 8 8 7 7 7 7 7 7 8 8 9 9 10 9 8 9 9 9 9 9
10 12 15 17 18 18 18 17 14 11 9 5 3 1 2 3 3 3 3 4 4 5 5 4 5 5 5 6 6 6 7 9 10 10 11 11 11 11 10 10 10 10 10
14 15 14 14 17 18 19 19 18 17 15 12 8 7 6 4 3 3 4 4 5 5 5 5 6 5 6 6 7 7 8 9 10 12 12 13 12 12 12 11 11 10 10
16 18 19 16 16 17 19 20 20 20 19 17 14 13 12 10 9 7 7 7 7 8 8 8 8 9 10 10 10 10 10 11 12 14 14 14 14 14 13 12 12 11 10
15 16 18 20 20 18 18 19 20 21 21 19 18 17 16 15 14 13 13 12 12 12 11 12 12 12 13 13 14 14 15 15 14 15 15 16 16 15 14 13 13 13 11
15 15 17 20 21 20 18 18 19 21 22 21 20 20 20 19 18 18 18 18 17 17 16 15 15 15 16 17 17 18 18 18 18 17 16 19 17 16 15 14 14 13 12
20 19 19 21 22 21 21 20 20 21 22 24 25 25 24 23 23 23 22 22 22 21 21 21 20 19 19 19 19 21 21 22 22 20 19 20 18 17 16 15 15 14 13
25 24 23 22 22 22 22 22 23 23 22 22 23 24 26 27 27 27 28 26 26 27 27 26 25 25 23 23 22 23 23 23 24 23 23 22 20 19 17 16 16 16 14
29 28 27 25 25 25 25 25 26 25 24 22 22 22 23 26 27 28 29 31 29 29 31 31 30 29 28 26 26 27 26 25 25 26 23 24 21 20 19 18 18 17 16
29 28 30 29 28 28 27 26 26 27 28 28 28 28 27 26 27 28 29 31 30 31 32 33 32 32 31 30 29 29 29 29 28 27 28 24 22 21 20 20 19 18 17
31 30 32 32 32 29 30 31 28 28 30 31 32 32 31 31 31 30 31 30 30 31 31 31 30 31 32 32 31 32 31 31 30 29 28 28 25 22 22 21 21 20 19
34 32 33 36 37 37 35 35 34 34 34 34 34 36 35 35 34 34 34 33 34 35 34 33 33 30 30 32 33 35 33 33 32 31 31 29 29 25 23 22 23 23 22
36 35 37 37 37 37 38 39 40 40 39 39 37 37 39 40 40 37 36 36 37 38 37 37 36 36 35 35 35 36 36 35 35 33 33 32 29 28 28 24 24 24 24
33 35 36 36 37 38 40 40 42 45 46 44 42 40 41 44 43 42 40 39 39 40 40 40 39 38 37 37 37 35 38 38 36 35 34 35 33 30 31 28 25 26 26
33 34 34 34 34 35 37 38 39 42 47 47 43 39 39 41 46 47 45 44 41 41 42 41 41 39 38 36 37 36 39 40 36 36 35 35 35 33 31 31 27 28 28
30 31 31 32 32 32 32 34 35 36 39 42 42 37 36 36 36 40 46 48 47 45 45 44 43 43 43 42 41 39 40 41 40 40 37 35 35 35 32 30 29 33 39
27 27 27 27 27 27 27 28 29 31 32 35 39 40 39 38 36 35 36 42 48 50 50 48 49 50 50 48 45 43 43 44 43 41 41 38 38 39 40 35 35 37 39
21 22 22 23 24 26 26 27 27 28 29 30 30 32 33 34 35 35 37 37 40 43 47 51 54 55 56 56 54 51 48 46 46 44 44 42 40 39 41 41 43 46 35
Wind_Direction
167 152 128 118 93 68 63 62 63 61 55 48 45 39 32 30 36 39 45 47 54 56 70 86 92 113 134 155 163 184 191 200 214 233 266 288 295 304 321 331 324 321 321
186 176 150 137 109 84 62 66 62 56 53 47 41 39 35 35 42 47 51 49 58 59 81 88 83 87 96 126 148 156 174 211 239 256 270 271 297 318 324 318 315 320 325
191 191 169 149 120 94 67 55 54 49 51 49 43 38 36 39 43 51 60 61 64 71 96 93 88 89 89 90 107 124 148 185 239 263 263 308 319 318 320 319 325 328 332
199 198 181 165 147 113 82 51 42 42 49 54 55 50 49 48 50 53 58 61 62 64 73 80 82 87 88 89 92 98 99 92 340 309 313 319 314 317 318 318 327 333 334
203 203 195 184 178 156 115 74 46 38 44 52 53 53 53 53 53 55 59 64 68 68 70 69 70 71 71 73 76 74 67 41 359 341 342 351 346 344 342 335 339 338 336
210 207 203 200 196 186 152 112 76 49 43 59 57 55 57 56 55 55 61 66 68 70 69 70 67 66 63 61 60 56 49 38 23 2 13 2 353 351 344 329 331 327 331
206 204 206 206 204 203 192 163 119 76 54 48 66 62 65 62 59 57 58 61 65 67 65 66 64 64 62 57 50 43 36 29 17 6 11 2 353 353 343 334 335 330 330
209 205 210 214 215 212 212 206 177 131 77 44 42 60 52 59 61 60 63 64 62 63 65 65 66 64 61 58 52 45 36 29 23 15 17 5 2 357 344 337 334 330 323
201 198 212 220 226 224 221 220 208 195 172 120 60 23 31 39 43 54 54 56 56 57 57 56 57 58 55 47 39 30 21 14 9 3 10 355 353 355 341 338 335 331 323
208 197 214 221 226 229 227 227 228 219 208 204 184 186 351 3 359 359 10 19 21 15 14 23 26 28 28 23 14 8 360 355 349 348 340 339 340 342 342 337 335 331 327
238 229 227 226 231 232 233 234 233 232 226 218 218 219 229 238 273 307 308 313 315 322 321 319 323 329 330 330 333 335 335 335 334 342 333 329 328 329 331 331 332 328 325
236 239 237 236 234 239 239 241 240 240 238 236 230 229 235 240 249 258 266 277 280 285 289 295 300 304 306 307 307 310 312 315 317 329 330 326 325 325 324 325 324 322 321
235 241 242 242 243 245 246 245 245 246 246 246 247 245 244 248 255 256 258 260 262 268 275 283 288 293 294 296 299 303 305 304 306 317 320 322 316 317 314 315 316 316 317
239 248 250 248 251 252 256 254 252 251 253 250 253 254 257 257 258 261 263 262 264 269 270 271 277 285 290 291 293 296 298 300 300 306 312 315 311 310 309 307 307 307 307
239 248 252 251 251 252 256 259 259 258 256 256 253 253 255 259 266 263 265 269 272 271 272 273 271 275 280 284 289 292 294 295 295 300 304 310 307 306 304 302 300 297 296
247 246 247 255 258 256 256 257 258 259 260 262 264 263 264 264 266 269 270 266 267 269 271 271 271 271 273 281 285 287 287 289 290 294 299 305 304 302 300 296 294 290 288
246 248 252 249 250 254 257 259 261 260 259 256 260 263 269 271 270 268 268 271 270 271 273 272 271 272 273 274 279 284 285 286 286 287 291 299 299 297 294 291 289 286 283
249 253 262 258 250 251 253 256 259 259 258 261 263 264 266 270 274 276 273 272 272 271 272 273 274 276 273 272 276 279 282 282 282 280 285 290 292 291 289 288 286 282 278
250 250 256 260 265 257 253 255 255 256 259 262 267 271 275 274 273 271 273 277 277 274 271 274 274 274 275 274 274 275 277 278 278 276 279 287 285 287 286 286 282 279 274
249 248 248 249 250 257 259 259 257 257 260 262 268 274 279 282 277 274 272 271 275 276 274 274 276 275 274 275 274 273 274 274 273 272 275 279 284 283 281 283 280 276 272
251 254 254 255 258 256 255 261 266 267 264 263 263 269 275 276 277 275 274 273 272 274 276 274 273 273 273 275 275 276 275 273 272 269 271 277 278 280 281 278 276 275 272
254 254 254 253 254 255 258 257 259 265 269 270 268 264 268 275 275 276 273 271 272 272 273 272 272 273 271 271 274 274 274 272 271 271 271 275 276 274 276 277 274 273 272
254 258 261 261 260 262 263 264 265 266 270 274 276 275 271 267 271 272 273 272 269 270 269 272 272 271 271 269 270 272 272 272 272 270 274 275 274 273 270 272 274 275 273
258 260 262 264 266 266 268 269 268 266 265 270 275 275 272 270 269 264 265 268 268 266 266 268 269 270 270 268 268 270 273 273 273 272 272 272 272 275 270 264 267 277 277
260 260 260 261 264 266 266 267 267 268 267 266 268 273 276 275 270 265 260 263 266 266 268 268 269 271 270 269 267 269 269 271 272 272 272 270 269 269 269 266 270 273 268
258 260 261 263 266 267 268 269 270 270 270 271 272 273 276 280 281 278 272 267 265 267 269 269 269 269 270 271 270 268 268 267 269 272 273 272 270 266 266 265 266 277 262